timestamp,gas_concentrations,,corrected_fluxes_and_quality_flags,,,,,,,,,,storage_terms,,,turbulence,,,footprint,,
ISOdate,CO2_1_1_1,H2O_1_1_1,Tau_1_1_1,QcTau_1_1_1,H_1_1_1,QcH_1_1_1,LE_1_1_1, QcLE_1_1_1,Fc_1_1_1, QcFc_1_1_1,E_1_1_1, QcE_1_1_1,Sa_1_1_1,Sw_1_1_1,Sc_1_1_1,ustar_1_1_1,MO_length_1_1_1,ZL_1_1_1,Fetchmax_1_1_1,Fetch70_1_1_1,Fetch90_1_1_1
yyyymmddHHMM,[µmol+1mol_a-1],[mmol+1mol_a-1],[kg+1m-1s-2],[#],[W+1m-2],[#],[W+1m-2],[#],[µmol+1s-1m-2],[#],[mmol+1s-1m-2],[#],[W+1m-2],[W+1m-2],[µmol+1s-1m-2],[m+1s-1],[m],[#],[m],[m],[m]
201802220400,410.93599320381719,1.7716978175311791,7.4367281749646503,1,-792.23275588869774,1,3.5795211859483520,1,-43.760302769961385,2,7.85493926778422641E-002,1,-9999.,-9999.,-9999.,2.4000995820314408,1484.6544386556911,1.45488400786098985E-002,193.50811743558123,353.79455492088806,530.04871308032477
201802220430,411.04039927924498,1.7073638023538187,0.19676687690616274,0,13.425424730686156,2,3.1775861611291893,1,2.0565576494520119,1,6.96992839767745787E-002,1,-11.619688793938947,-2.5480948278936597,9.07050947864155299E-002,0.39005625605455546,-376.04299132584498,-5.74402408720427055E-002,126.04142120667893,230.44391681531431,345.24697976897903
201802220500,411.11771097026815,1.6645366008645766,0.80602354395417641,1,-63.814984886336681,1,0.82619730242161771,1,-1.4108234868706169,1,1.81178510431998889E-002,1,-6.7285055077913141,-1.6987180692657704,6.72465014006009554E-002,0.78897327212131685,654.78445460764294,3.29879548116991522E-002,159.74366252363083,292.06236272126830,437.56264008705205
201802220530,411.25676344984555,1.6159570357535233,0.69296991429478028,1,75.666440537624666,1,6.8636428977736408,1,2.6857068349006705,2,0.15048393985198147,1,-5.4519625923943797,-1.9296536528650037,0.12109883189356463,0.73109409878328468,-439.51512640365388,-4.91450662386586565E-002,158.54351171190228,289.86810426895926,434.27524107925183
201802220600,411.40689181910460,1.5695068157855134,0.51603703146900148,0,-11.907435481521084,1,1.3025821009296523,1,1.1056053849495244,0,2.85555433605202899E-002,1,-3.1297184980509791,-1.8466198855505234,0.13083918267074146,0.63066072659721473,1793.0813001482679,1.20463026401613355E-002,140.05963510370944,256.07368269909830,383.64503941771346
201802220630,411.52739121100194,1.5434164799746319,0.23551538501732694,0,-0.71719769016898516,2,2.2035977090538119,0,1.3756028317104916,0,4.82979991047242513E-002,0,-5.5286054013376562,-1.0383865733325774,0.10511412443194645,0.42585550646267528,9166.4918546434801,2.35640857402366708E-003,117.75030773710861,215.28511707792489,322.53633546739474
201802220700,411.39380165338292,1.5140804289661849,0.46354346801807395,0,-78.000948243878341,1,1.7384816296781125,0,-1.8603203803508896,0,3.80935305074772620E-002,0,-7.2374265350701652,-1.1690237031261075,-0.11664746246150264,0.59714825494919077,232.36125754462884,9.29586981420573583E-002,139.74810478737692,255.50410592334401,382.79170961715590
201802220730,411.54633647973662,1.4854699011478343,0.17581851799144424,0,-40.502373630840644,0,1.9962679815988034,0,-0.14387616063380237,0,4.37401003810743150E-002,0,-1.2626034193769069,-1.1400506684744649,0.13317669406667937,0.36778047946669190,104.52258389785133,0.20665390382148821,115.09813316965769,210.43609610093063,315.27161843654602
201802220800,411.57204570529791,1.4737650945394214,1.72823830214213076E-002,1,-48.890336578426961,1,1.1017153725220838,1,0.16656776288242181,1,2.41372511671718547E-002,1,-2.6617709353960879,-0.46662331660847028,2.24548205447222642E-002,0.11528598923696909,2.6669826960986223,8.0990401743503693,504.06489456431302,3522.0000000000000,-9999.
201802220830,411.63266991510068,1.4728198012912395,4.69848990287172336E-002,0,-16.155164072070608,0,0.13545950942381635,0,-8.85889371457907471E-002,0,2.96754112333802965E-003,0,-1.9499725177726681,-3.76929193021203895E-002,5.29573881003320632E-002,0.19007449820281574,36.168010831037698,0.59721282712799595,242.92037046414427,2374.0000000000000,-9999.
201802220900,411.86936277526542,1.4765854208470497,5.22034995664065610E-002,1,-9.9736987296608692,0,9.17453766086854909E-003,0,-8.00256072774237492E-002,2,2.01014119406889091E-004,0,3.4475785597298785,0.15000062172814466,0.20657803975498679,0.20044053714258236,68.683958545466993,0.31448391236363238,107.97008144975160,197.40374418144711,295.74678045571056
201802220930,412.24768166995898,1.4793751818316994,7.29162375477692554E-002,1,-85.605889700983894,1,-1.2726604877637524,1,-2.6498128498279181,0,-2.78870355344006116E-002,1,2.9620728957371716,0.11101551184221774,0.32988646015854506,0.23699783115823264,13.223426698464797,1.6334646451745902,129.69616677448795,1025.0000000000000,4487.0000000000000
201802221000,412.25431924970150,1.4621021761065378,1.0735122781738653,1,-286.57271100744350,1,-2.9887184430282847,2,-17.427867899542594,1,-6.54741619977785572E-002,2,-6.5564774645809747,-0.68816586766506915,5.79321848783724384E-003,0.90893428676204735,222.82050453825872,9.69390139599618367E-002,182.93563599538669,334.46468692820201,501.08904846415555
201802221030,413.35695765498338,1.4901039248643231,0.13526946391088723,1,-74.383254873964233,1,-1.4048763930506376,1,-3.0334602792027554,1,-3.07901475885969597E-002,1,11.776535801486546,1.1128982724571113,0.96045513861878484,0.32297154165942837,38.507881390131608,0.56092413345636360,135.42630457797316,247.60247677307328,370.95362928469990
201802221100,414.65540003948769,1.5008262515642421,5.76756956165020637E-002,0,-36.697856477330511,0,2.9300966889161879,1,-1.8721699842704580,2,6.42293299659844191E-002,1,4.8506442089739004,0.42589392808479787,1.1305415704716015,0.21093649824345731,21.749411877388084,0.99313030263850854,102.85404672619016,188.05000103118991,281.73316874145911
201802221130,414.05429275509999,1.4823143730290362,3.61408278370637867E-003,1,-7.5872504236709810,1,0.25084657277166311,1,-0.21714837916104179,2,5.49937433633937694E-003,1,3.3442721874418844,-0.73473213700775120,-0.52304089445637869,5.28193360183940169E-002,1.6515202988424189,13.078858319295161,2621.0842424506263,-9999.,-9999.
201802221200,413.66962866865691,1.4538333144859230,2.25085592206152769E-002,1,-3.1143230486040894,1,0.20697217786710234,2,8.68030405921707826E-002,0,4.53742956792490670E-003,2,-0.44776509118991803,-1.1308675376803405,-0.33483833925377399,0.13178939253210112,62.512303918714089,0.34553197764214361,227.99330637492167,2208.0000000000000,-9999.
201802221230,413.67092797052226,1.4531544800505691,5.12155881602789111E-003,1,-21.711769545652913,1,0.64091946837229707,2,0.30278067695305544,1,1.40421337960221146E-002,2,-16.778090539867343,-2.70515678953185054E-002,1.13440539131001131E-003,6.27704574332502985E-002,0.96917037117885230,22.287103116582895,641.18312866852898,4073.0000000000000,-9999.
201802221300,413.54352276456217,1.4057146454039260,4.78913288380087426E-002,1,13.168321196856642,1,-8.81396600995324880E-002,1,0.41522816598765311,1,-1.93191666757675613E-003,1,11.700697048345015,-1.8866815725964310,-0.11106050229313273,0.19209746691371918,-45.806071489726321,-0.47155320894184494,114.05604178455302,375.00000000000000,872.00000000000000
201802221330,414.25132726652339,1.4104491914455684,3.58566217214542002E-002,0,3.8402652040403273,2,3.46744006260701274E-002,2,2.99475764600842798E-003,2,7.59322490933441352E-004,2,-25.073797902095979,0.18927659700497548,0.61965391313510843,0.16586187078974166,-101.13910289449620,-0.21356724928173584,245.73365312672124,850.00000000000000,2049.0000000000000
201802221400,413.89577178859946,1.4352458700234645,4.57358168952264540E-002,0,-15.042262023100857,0,1.9817405747909984,0,-2.96776210303306698E-002,0,4.33800613966615345E-002,0,-10.938343899924448,0.99353429335817400,-0.31184593299905694,0.18715167353504092,37.099208668596511,0.58222266121497690,170.48546100867904,1588.0000000000000,7908.0000000000000
201802221430,414.74182183331737,1.5059526139075285,3.82859668743027043E-002,0,-10.875862350674820,0,3.5378144084686025,0,1.44880437203936951E-002,0,7.74931134195632615E-002,0,17.850105982508016,2.8230088485559475,0.73990424263165977,0.17148168255884150,39.467335579519364,0.54728802141913035,141.85270092060878,1294.0000000000000,6335.0000000000000
201802221500,415.50832664092064,1.5732402601798110,5.60055020748764718E-002,0,-3.0759684019644178,1,4.3115552094085592,0,-0.84768243286928480,1,9.44898402924363029E-002,0,13.944842790292501,2.6784052593398431,0.66866254762264032,0.20766460330188116,247.76486968254136,8.71794295441313538E-002,106.74641257937778,195.16648721723433,292.39496184172384
201802221530,415.42890273584879,1.6619180094917982,0.16620145152753205,1,49.906017231966629,1,14.488900493234699,0,-2.1702301250821394,0,0.31776242604515686,0,19.670285203930920,3.5154428965983553,-6.90531882343905917E-002,0.35834523153647158,-78.447402983175749,-0.27534372303736371,120.22771022399012,219.81459895094204,329.32232469283730
201802221600,415.46950777762095,1.8000907684476573,0.10554917836995197,1,31.587794999969713,1,14.967635626191866,0,-2.0313606754587266,0,0.32882375100431332,0,45.856956668043928,5.4282813788904649,3.50453063539445039E-002,0.28662515626866830,-63.409986963340430,-0.34064034759205564,112.09188628189929,204.93971799683970,307.03704246539314
201802221630,414.54753247939385,1.9075044444079701,0.17686907756432999,0,-17.787240407046049,2,21.916360762985757,0,-0.37891214368124448,2,0.48228925789440419,0,44.623048133486854,4.1833774144162472,-0.79017976060709760,0.37234309027978679,246.83282055436612,8.75086220361141059E-002,115.91383576813752,211.92746060595229,317.50595422726263
201802221700,413.75793388026591,2.0560767096346417,0.43067983604053822,0,17.947599339583853,2,53.977801754948779,0,-0.89108486294811839,2,1.1900102570390123,0,48.269231383051903,5.7303852920809470,-0.67141023669878719,0.58333674610595732,-940.34318585523067,-2.29703371331978802E-002,116.24672725868007,212.53609242095951,318.41779559338107
201802221730,413.95137784050075,2.1404417159933913,0.53911265768146033,1,227.33491609433187,1,117.18076632839643,1,-6.9415079033044229,1,2.5868288305274039,1,34.641250899282234,3.2302277039457077,0.16350736783762299,0.65461881045136339,-104.86395786325326,-0.20598116302426095,121.40530479428750,221.96761739997075,332.54793866081098
201802221800,413.77216421870480,2.1371824507874457,0.45131584647758682,0,120.53112413713372,0,98.592107231185551,0,-1.6489198546802228,0,2.1776512124001921,0,14.076251971969377,-0.12440463056696280,-0.15108941325812633,0.59971968902510375,-152.03381251103428,-0.14207365876871844,133.56060858031697,244.19138945613844,365.84319890243972
201802221830,413.44393331079937,2.0494143010582104,0.27906531561953241,0,35.200690398578857,1,96.726536993021625,0,8.83548090525079211E-002,1,2.1390335647978898,0,31.324603079299131,-3.3282790919191916,-0.27525437329212066,0.47283309524561157,-255.03501669696837,-8.46942521060354558E-002,109.94555347145356,201.01553708160478,301.15790437498430
201802221900,413.71245051479957,1.9019093088031573,0.36606172819964322,0,132.23970322394422,0,83.160949032728453,0,-1.3301596833506792,0,1.8404993241774883,0,20.413753198055513,-5.5685240129218059,0.22434775059923454,0.54252849459871422,-102.50527184943979,-0.21072086937856405,116.14439027243792,212.34898777140111,318.13747873341146
201802221930,413.82477080455669,2.0786946368406012,0.29008270252584933,1,143.39687451828297,0,96.893546058307862,0,-2.8137442759938089,0,2.1456753494580969,0,14.945884362625225,6.6510696664772322,9.35777620963667150E-002,0.48365804389357003,-66.950788360207781,-0.32262502845803631,120.53173968674730,220.37046177408601,330.15510849337522
201802222000,413.55141800984353,1.9918430593738272,0.19556573443199179,1,54.499901268645850,0,36.533215264978452,0,-0.86413943172690288,0,0.80910798051710420,0,2.9173246568736659,-3.2646505356291473,-0.22756270920383742,0.39726945514239193,-97.595999073584323,-0.22132054802486606,113.75484334724071,207.98013388523711,311.59213950252638
201802222030,413.27201767423588,2.0260088506809000,0.40462093034828600,0,37.503551973045376,0,52.103761284562339,0,-1.4410720433930293,0,1.1542451023486633,0,6.5051519660892803,1.2822750275889616,-0.23229806332872913,0.57180141859820621,-422.81234981037278,-5.10864926478315773E-002,126.05652429619528,230.47153007983354,345.28834947102445
201802222100,413.32611010062129,2.0105328758006316,0.43052125140126185,1,60.812236272311225,0,47.045712122527249,0,-1.1895076395538879,0,1.0427313999531824,0,13.132098955647391,-0.57913540506336325,4.48653404469247785E-002,0.59052618799568857,-287.13662054491556,-7.52255144572240436E-002,126.37734073355549,231.05808484648276,346.16711539573765
201802222130,413.27055373418335,2.0442071064993788,0.40329374936023316,0,48.993195118715356,0,41.595377845161920,0,-1.4113504765032809,0,0.92207156423328318,0,3.9414213888026124,1.2587110640818062,-4.60343224960930789E-002,0.57183228168287592,-323.53206591326540,-6.67630886571554533E-002,116.71120166748784,213.38529977677493,319.69006295823345
201802222200,413.33788607254365,1.9731073984182941,0.31178537472536211,0,31.064219562513802,0,28.732832367894133,0,-1.5819025699767415,0,0.63703370873987009,0,3.7767649527781177,-2.6546116460093612,5.57366483582799818E-002,0.50303167847671093,-347.24807913661914,-6.22033678449862085E-002,119.19831779654021,217.93254128568771,326.50265935447703
201802222230,413.51351373517400,1.9970940767405700,0.35535327369983960,0,5.0826349449378929,0,36.717379150653635,0,-0.86060346258238973,0,0.81404931303782546,0,-0.28936800273790458,0.89584438962470669,0.14542344502611890,0.53695441782672748,-2581.7506281888095,-8.36641609153133958E-003,117.71153253921706,215.21422364946403,322.43012419308627
201802222300,413.68915523554438,2.0340348953291523,0.19303853677132810,0,-7.8750286127625841,0,17.592498480232194,0,-0.41318520047032692,2,0.38999668901626106,0,-2.6787069269654511,1.3808474914817912,0.14554581973917977,0.39560954194652642,666.57765448974283,3.24043265694745550E-002,114.21556809976461,208.82248567347409,312.85413597789824
201802222330,413.80207376728032,2.1204723570334871,0.23683869702358579,0,-9.7967466869105291,1,10.076235126130141,1,-0.23845735254369826,2,0.22333778715327468,1,-4.0813419505925488,3.2338498081841753,9.36368895829712139E-002,0.43804991956661832,727.48549220960297,2.96913137530674144E-002,118.53225149023820,216.71475964681477,324.67820055057661
201802230000,413.47361342571611,2.1505497478767155,0.21998519672535799,0,-17.509454772684212,0,16.831468676212509,0,4.31743852141166506E-002,0,0.37296948519855511,0,-6.6225639900878273,1.1264954229196267,-0.27259852414793162,0.42200449007054830,363.87965032696849,5.93602856894884304E-002,108.89514418556932,199.09505389614930,298.28067060531617
